Location: Asheville, NC
(35.6000°N, 82.5500°W)
Time: 03:20:41
(UTC-04:00)

STRAND 1 - Pass Details

Date: 14 March 2018
Orbit: 769 x 781 km, 98.5° (Epoch: 19 June)

Event Time Altitude Azimuth Distance (km) Brightness Sun altitude
Rises 20:06:12 0° 28° (NNE) 3,257 ? -6.8°
Reaches altitude 10° 20:08:59 10° 43° (NE) 2,323 ? -7.3°
Maximum altitude 20:13:02 23° 95° (E) 1,584 ? -8.2°
Drops below altitude 10° 20:17:02 10° 148° (SSE) 2,306 ? -9.0°
Sets 20:19:46 0° 162° (SSE) 3,226 ? -9.5°
